Regional Weather Roundup
Issued by NWS Midland/Odessa, TX

Skip options and go directly to product.
Home | Oldest Version | Previous Version | Current Version | All | Text Only | Save Text | Print | Product List | Glossary On

Skip product version selection by date and time.   
828
ASUS44 KMAF 030810
RWRMAF
MIDLAND AREA WEATHER ROUNDUP
NATIONAL WEATHER SERVICE MIDLAND TX
300 AM CDT MON AUG 03 2015

...IN SOUTHWEST TEXAS AND SOUTHEAST NEW MEXICO...

CITY           SKY/WX    TMP DP  RH WIND       PRES   REMARKS
ALPINE         CLEAR     74  56  53 S8        30.11F
ANDREWS        FAIR      76  64  68 S7        29.96S
ARTESIA        MOCLDY    79  61  53 SW13      30.01R
BIG SPRING     MOCLDY    78  61  56 S10       29.96F
CARLSBAD       MOCLDY    83  58  42 S7        29.97S
DRYDEN           N/A     83  57  41 VRB5      29.92F
FORT STOCKTON  CLEAR     80  57  45 S14G22    29.95F
GUAD PASS      CLOUDY    72  55  55 N8        30.15F
HOBBS            N/A    N/A N/A N/A MISG        N/A
MARFA          PTCLDY    70  57  64 E6        30.11F
MIDLAND AIRPK  MOCLDY    82  61  49 S9        29.95F
MIDLAND INTL   MOCLDY    83  60  45 S8        29.95F
ODESSA         MOCLDY    83  58  42 S10       29.96F
PECOS          PTCLDY    80  57  45 SE7       29.91F
PRESIDIO       FAIR      85  56  37 MISG      29.93F
SEMINOLE       MOCLDY    76  61  59 SW7       29.98S
SNYDER         PTCLDY    78  63  59 E3        29.94F
WINK           PTCLDY    78  65  63 SE8       29.93F
$$
...OTHER STATIONS IN TEXAS...

CITY           SKY/WX    TMP DP  RH WIND       PRES   REMARKS
ABILENE        CLEAR     79  59  50 SE12      29.91F
AMARILLO       LGT RAIN  67  64  90 E8        30.02F
AUSTIN         CLEAR     75  69  81 SW3       29.89R
BROWNSVILLE    CLEAR     77  75  93 S6        29.86F
CORPUS CHRISTI PTCLDY    77  74  90 CALM      29.86F
DALLAS FTW     PTCLDY    79  59  50 SE6       29.87F
DEL RIO        CLEAR     81  61  50 SE6       29.87S
EL PASO        CLOUDY    73  64  73 N7        30.01F
HOUSTON INT    CLEAR     76  71  85 CALM      29.87S
LUBBOCK        CLOUDY    75  63  66 NW9       30.01R
SAN ANGELO     CLEAR     80  59  48 S8        29.91F
SAN ANTONIO    PTCLDY    79  69  71 S6        29.90S
WACO           CLEAR     82  62  50 S12       29.87S
WICHITA FALLS  NOT AVBL
$$
...OTHER LOCATIONS IN NEW MEXICO...

CITY           SKY/WX    TMP DP  RH WIND       PRES   REMARKS
ALAMAGORDO     MOCLDY    72  63  73 S3        30.07F
ALBUQUERQUE    LGT RAIN  67  62  84 N10       30.18F
CANNON AFB     MOCLDY    68  65  88 SE10      30.05F
CLOVIS         MOCLDY    66  63  88 SE10      30.07F
HOLLOMAN AFB   DRIZZLE   72  63  73 SE8       30.04F
ROSWELL        PTCLDY    73  59  61 SW6       29.99F
RUIDOSO          N/A    N/A N/A N/A MISG        N/A
SANTA FE       LGT RAIN  62  58  86 NW3       30.23R
TRUTH OR CONSE CLOUDY    73  57  57 N8        30.11R
TUCUMCARI      PTCLDY    68  65  90 CALM      30.03S
$$

USA.gov is the U.S. government's official web portal to all federal, state and local government web resources and services.